www.pogodaiklimat.ru

Погода и климат >> Архив погоды >> Индия >> Kota


ПОГОДА в Kota

  • Прогноз погоды в Kota
  • Монитор погоды в Kota
  • Климат города

АРХИВ ПОГОДЫ в Kota

Время (UTC), дата Ветер
(напр.,м/с)
 
Видим.   Явления Облачность Т
(С)
Тd
(С)
f
(%)
Тe
(С)
Тes
(С)
Комфортность P
(гПа)
Po
(гПа)
Тmin
(С)
Tmax
(С)
R
(мм)
R24
(мм)
S
(см)
21 18.06 З 2 4000 м {дождь} 5/5 600 м
[Cu Sc Ac trans]
+31.4 +21.3 55 +39 +39 очень
душно
998.4 998.0 5
03 19.06 штиль 0 4000 м ясно +34.0 +23.0 53 +44 +55 опасность
перегрева
1000.5 1001.0 +27.4 +40.7 5
06 19.06 ЮЗ 2 4000 м 5/3 600 м
[Sc diur, vesp Ac trans]
+38.2 +20.1 35 +44 +56 опасность
перегрева
999.6 1000.0
09 19.06 СЗ 1 4000 м 5/4 600 м
[Sc diur, vesp Ac trans]
+40.0 +18.7 29 +44 +56 опасность
перегрева
997.3 997.0
12 19.06 С 8 4000 м 8/5 600 м
[Sc diur, vesp Ac trans]
+39.8 +18.8 30 +44 +44 опасность
перегрева
995.6 996.0 +41.2
15 19.06 С 3 4000 м в посл. час снег {гроза, дождь} 8/5 600 м
[Sc Ac trans]
+36.8 +20.2 38 +43 +43 опасность
перегрева
998.0 998.0 0.1
18 19.06 С 4 4000 м в посл. час дождь 10/6 600 м
[Sc As op]
+32.2 +22.6 57 +42 +42 опасность
перегрева
1000.4 1000.0 0.5
21 19.06 С 2 4000 м 8/5 600 м
[Sc Ac trans]
+32.4 +22.2 55 +41 +41 опасность
перегрева
999.3 999.0 0.5
00 20.06 С 2 4000 м 8/5 600 м
[Sc diur, vesp Ac trans]
+30.4 +22.8 64 +40 +40 очень
душно
1000.0 1000.0 0.4
03 20.06 ЮЗ 2 4000 м 9/6 600 м
[Sc diur, vesp Ac trans]
+30.2 +20.6 56 +37 +39 очень
душно
1001.6 1002.0 +27.5 +41.2 0.5
06 20.06 С 2 4000 м 4/3 600 м
[Sc diur, vesp Ac trans]
+36.8 +17.8 33 +40 +54 опасность
солнечного
удара
1001.3 1001.0
09 20.06 З 1 4000 м 4/0
[Ac trans Ci sp]
+39.2 +16.7 27 +42 +59 опасность
перегрева
999.0 999.0
12 20.06 З 1 4000 м ясно +40.4 +16.3 25 +42 +46 опасность
перегрева
996.4 996.0 +40.6
15 20.06 штиль 0 4000 м ясно +37.0 +18.9 35 +42 +42 опасность
перегрева
998.1 998.0
18 20.06 З 1 4000 м ясно +35.0 +18.5 38 +39 +39 очень
душно
999.7 1000.0
21 20.06 З 2 4000 м ясно +33.0 +19.4 45 +39 +39 очень
душно
998.7 999.0
00 21.06 З 1 4000 м 6/4 600 м
[Sc Ac trans Ci fib]
+33.4 +18.0 40 +38 +38 очень
душно
999.2 999.0
03 21.06 З 1 4000 м ясно +35.6 +18.6 37 +40 +49 очень
душно
1000.7 1001.0 +31.5 +40.6
06 21.06 СЗ 1 4000 м ясно +40.2 +16.9 26 +43 +67 опасность
перегрева
999.4 999.0
09 21.06 штиль 0 4000 м 8/5 600 м
[Cu hum Ac trans]
+42.6 +17.5 24 +45 +53 опасность
перегрева
996.4 996.0
12 21.06 В 1 4000 м 8/6 600 м
[Sc diur, vesp Ac trans]
+38.0 +18.3 32 +42 +43 опасность
перегрева
995.2 995.0 +42.7
15 21.06 С 1 4000 м 6/4 600 м
[Sc Ac trans]
+36.6 +17.9 33 +40 +40 очень
душно
996.7 997.0
18 21.06 СЗ 3 4000 м 8/5 600 м
[Sc Ac trans]
+35.4 +18.3 37 +40 +40 очень
душно
998.2 998.0
21 21.06 СЗ 1 4000 м 5/4 600 м
[Sc Ac trans]
+33.8 +18.9 41 +39 +39 очень
душно
997.2 997.0
00 22.06 СЗ 2 4000 м 5/4 600 м
[Sc Ac trans]
+33.4 +19.1 43 +39 +39 очень
душно
998.0 998.0
03 22.06 СЗ 4 4000 м 4/1 600 м
[Sc Ac trans]
+34.8 +20.2 43 +41 +45 опасность
перегрева
999.7 1000.0 +31.0 +42.7
06 22.06 С 1 4000 м 4/1 600 м
[Cu hum Ac trans]
+38.2 +19.0 33 +43 +61 опасность
перегрева
999.3 999.0
09 22.06 С 1 4000 м 4/1 600 м
[Cu hum Ac trans]
+41.6 +17.3 25 +44 +59 опасность
перегрева
996.6 997.0
12 22.06 СЗ 3 4000 м слабая морось 10/8 600 м
[Sc diur, vesp Ac trans]
+37.4 +18.7 34 +42 +42 опасность
перегрева
996.0 996.0 +43.3 0.0
15 22.06 СЗ 2 4000 м 9/6 600 м
[Sc Ac trans]
+35.2 +19.2 39 +40 +40 очень
душно
997.1 997.0 0.0
18 22.06 З 6 4000 м 8/5 600 м
[Sc Ac trans]
+33.8 +20.0 44 +40 +40 очень
душно
998.5 999.0 0.0
21 22.06 СЗ 3 4000 м 8/5 600 м
[Sc Ac trans]
+33.0 +20.1 47 +39 +39 очень
душно
997.8 998.0 0.0
00 23.06 СЗ 3 4000 м 8/5 600 м
[Sc diur, vesp Ac trans]
+31.8 +21.1 53 +39 +39 очень
душно
998.4 998.0 0.0
03 23.06 З 4 4000 м 8/4 600 м
[Sc Ac trans]
+33.0 +22.9 55 +43 +45 опасность
перегрева
999.8 1000.0 +28.8 +43.3 0.0
06 23.06 СЗ 2 4000 м 8/6 600 м
[Sc diur, vesp Ac trans]
+38.0 +21.0 37 +44 +50 опасность
перегрева
999.2 999.0
09 23.06 СЗ 1 4000 м 3/3 600 м
[Cu hum]
+41.4 +19.5 28 +46 +60 опасность
перегрева
996.6 997.0
12 23.06 З 2 4000 м 4/4 600 м
[Sc diur, vesp]
+41.6 +19.4 28 +46 +48 опасность
перегрева
993.7 994.0 +42.2
15 23.06 Ю 3 4000 м гроза без осадков 8/5 600 м
[Cb cap Ac trans]
+32.0 +18.5 45 +37 +37 очень
душно
997.8 998.0
18 23.06 ЮЗ 2 4000 м 6/4 600 м
[Sc Ac trans]
+34.6 +19.5 41 +40 +40 очень
душно
997.6 998.0
21 23.06 ЮЗ 8 4000 м гроза без осадков {дождь} 9/6 600 м
[Cb cap Ac trans]
+28.2 +24.5 80 +40 +40 очень
душно
998.3 998.0 1
00 24.06 нст 1 4000 м гроза без осадков {дождь} 8/5 600 м
[Cb cap Ac trans]
+26.6 +22.8 80 +35 +35 очень
душно
1000.3 1000.0 10
03 24.06 ЮЗ 2 4000 м 9/8 600 м
[Sc Ac trans]
+28.0 +24.6 82 +40 +41 очень
душно
1000.5 1001.0 +23.6 +42.2 10
06 24.06 СЗ 4 4000 м 10/8 600 м
[Sc Ac trans]
+31.8 +22.5 58 +41 +42 опасность
перегрева
1000.3 1000.0
09 24.06 СЗ 1 4000 м 8/1 600 м
[Sc Ac trans Ci fib]
+36.8 +21.3 41 +44 +55 опасность
перегрева
997.1 997.0
12 24.06 СЗ 1 4000 м 3/0
[Ac trans]
+37.6 +20.5 37 +44 +47 опасность
перегрева
995.1 995.0 +38.4
15 24.06 штиль 0 4000 м 8/5 600 м
[Sc Ac trans]
+34.4 +21.5 47 +42 +42 опасность
перегрева
996.5 997.0
18 24.06 З 2 4000 м 9/5 600 м
[Sc Ac trans]
+32.4 +22.5 56 +42 +42 опасность
перегрева
998.0 998.0
21 24.06 З 2 4000 м 8/5 600 м
[Sc Ac trans]
+30.8 +22.6 62 +40 +40 очень
душно
997.7 998.0
00 25.06 З 1 4000 м 3/3 600 м
[Sc]
+29.8 +22.5 65 +39 +39 очень
душно
998.4 998.0
03 25.06 СЗ 1 4000 м 3/0
[Ci fib]
+32.6 +22.7 56 +42 +51 опасность
перегрева
997.8 998.0 +28.6 +38.4
06 25.06 СЗ 1 4000 м 3/3 600 м
[Cu hum]
+36.8 +22.0 43 +45 +63 опасность
перегрева
996.5 997.0
09 25.06 ЮЗ 1 4000 м 9/6 600 м
[Cu Sc Ac trans Ci fib]
+38.4 +20.8 36 +45 +50 опасность
перегрева
993.6 994.0
12 25.06 штиль 0 4000 м {гроза} 9/6 600 м
[Sc diur, vesp Ac trans]
+32.8 +21.6 52 +41 +42 опасность
перегрева
994.3 994.0 +39.1
15 25.06 З 3 4000 м зарница 9/6 600 м
[Cb cap As trans]
+31.0 +23.8 66 +43 +43 опасность
перегрева
997.0 997.0
18 25.06 штиль 0 4000 м 9/6 600 м
[Sc As trans]
+28.6 +24.0 76 +40 +40 очень
душно
998.0 998.0

 

Местоположение метеостанции Kota (Rajasthan, Индия): широта 25.15 долгота 75.85 высота над уровнем моря 274 м.

В архиве по умолчанию представлена погода в Kota за последнюю неделю. Архивные данные за месяц целиком и за предыдущие месяцы, начиная с января 2011 года, Вы можете получить, выбрав интересующий диапазон дат из раскрывающегося списка и нажав кнопку "Ввод!".


*Определитесь, кто Вы:
робот инопланетянин человек

Внимание! Время в таблицах - всемирное. Для получения местного времени необходимо прибавить поправку, которая в Kota равна 5.5 ч.

Смотрите также архив погоды в соседних городах и на ближайших метеорологических станциях:

Погода в Sheopur (Madhya Pradesh, Индия) (101 км)
Погода в Bhilwara (Rajasthan, Индия) (125 км)
Погода в Chittorgarh (Rajasthan, Индия) (127 км)
Погода в Rajgarh (Madhya Pradesh, Индия) (155 км)
Погода в Guna (Madhya Pradesh, Индия) (158 км)
Погода в Shivpuri (Madhya Pradesh, Индия) (182 км)
Погода в Jaipur (Rajasthan, Индия) (186 км)
Погода в Ajmer (Rajasthan, Индия) (190 км)
Погода в Shajapur (Madhya Pradesh, Индия) (197 км)
Погода в Maharana Pratap Airport (Rajasthan, Индия) (207 км)

Пояснения к столбцам:

Ветер - указаны скорость ветра в м/с - средняя за 10 мин, порывы в срок и между сроками (в фигурных скобках) и направление, откуда дует ветер: С - северный, СВ - северо-восточный, В - восточный, ЮВ - юго-восточный, Ю - южный, ЮЗ - юго-западный, З - западный, СЗ - северо-западный.
Видимость - горизонтальная дальность видимости в метрах или километрах. При видимости от 1 до 10 км при отсутствии осадков обычно наблюдается дымка, при ухудшении видимости до 1 км и менее - туман. В сухую погоду видимость может ухудшаться дымом, пылью или мглою.
Явления - указаны атмосферные явления, наблюдавшиеся в срок или в последний час перед сроком; фигурными скобками обозначены явления, наблюдавшиеся между сроками (за 1-3 часа до срока); квадратными скобками обозначены град или гололедные отложения с указанием их диаметра в мм.
Облачность - указаны через наклонную черту общая и нижняя облачность в баллах и высота нижней границы облаков в метрах; квадратными скобками обозначены формы облаков: Ci - перистые, Cs - перисто-слоистые, Cc - перисто-кучевые, Ac - высококучевые, As - высокослоистые, Sc - слоисто-кучевые, Ns - слоисто-дождевые, Cu - кучевые, Cb - кучево-дождевые. Подробнее классификацию облаков см. в Атласе облаков (PDF).
T - Температура воздуха - температура, измеренная на высоте 2 м над землей.
Td - Температура точки росы - температура, при понижении до которой содержащийся в воздухе водяной пар достигнет насыщения.
f - Относительная влажность воздуха - влажноcть воздуха, измеренная на высоте 2 м над землей.
Te - Эффективная температура - температура, которую ощущает одетый по сезону человек в тени. Характеристика душности погоды. При расчете учитывается влияние влажности воздуха и скорости ветра на теплоощущения человека.
Tes - Эффективная температура на солнце - температура, которую ощущает человек, с поправкой на солнечный нагрев. Характеристика знойности погоды. Зависит от высоты солнца над горизонтом, облачности и скорости ветра. Ночью, в пасмурную погоду, а также при ветре 12 м/с и более поправка равна нулю.
P - Атмосферное давление - приведенное к уровню моря атмосферное давление.
Po - Атмосферное давление - измеренное на уровне метеостанции атмосферное давление.
Tmin - Минимальная температура - минимум температуры воздуха на высоте 2 м над землей.
Tmax - Максимальная температура - максимум температуры воздуха на высоте 2 м над землей.
R - Количество осадков - Количество выпавших осадков за период времени, мм. При наведении курсора мыши на число - период времени, за который выпало указанное количество осадков.
R24 - Количество осадков - Количество выпавших осадков за 24 часа, мм.
S - Снежный покров - Высота снежного покрова, см. При наведении курсора мыши на число - состояние снежного покрова и степень покрытия местности в баллах.